Wetterdaten: Woche 23.01.06 - 29.01.06 (KW4)
Datum Zeit Temperatur Luftfeuchte Luftdruck Niederschlag Windrichtung Wind
23.01.2006 00:00 -4,1 C 76 % 1032 hPa 0,0 l/m N 0,0 km/h (0 Bft)
23.01.2006 01:00 -4,7 C 75 % 1032 hPa 0,0 l/m N 0,0 km/h (0 Bft)
23.01.2006 02:00 -5,4 C 74 % 1032 hPa 0,0 l/m N 0,0 km/h (0 Bft)
23.01.2006 03:00 -5,9 C 74 % 1032 hPa 0,0 l/m N 0,0 km/h (0 Bft)
23.01.2006 04:00 -7,0 C 71 % 1032 hPa 0,0 l/m N 0,0 km/h (0 Bft)
23.01.2006 05:00 -7,8 C 74 % 1032 hPa 0,0 l/m N 0,0 km/h (0 Bft)
23.01.2006 06:00 -8,0 C 73 % 1033 hPa 0,0 l/m N 0,0 km/h (0 Bft)
23.01.2006 07:00 -8,0 C 75 % 1033 hPa 0,0 l/m N 0,0 km/h (0 Bft)
23.01.2006 08:00 -7,9 C 75 % 1033 hPa 0,0 l/m N 0,0 km/h (0 Bft)
23.01.2006 09:00 -7,2 C 76 % 1033 hPa 0,0 l/m N 0,0 km/h (0 Bft)
23.01.2006 10:00 -6,4 C 71 % 1033 hPa 0,0 l/m N 0,0 km/h (0 Bft)
23.01.2006 11:00 -5,8 C 68 % 1033 hPa 0,0 l/m N 0,0 km/h (0 Bft)
23.01.2006 12:00 -5,1 C 64 % 1033 hPa 0,0 l/m N 0,0 km/h (0 Bft)
23.01.2006 13:00 -3,7 C 58 % 1033 hPa 0,0 l/m N 0,0 km/h (0 Bft)
23.01.2006 14:00 -2,7 C 52 % 1032 hPa 0,0 l/m N 0,0 km/h (0 Bft)
23.01.2006 15:00 -2,8 C 47 % 1032 hPa 0,0 l/m N 0,1 km/h (0 Bft)
23.01.2006 16:00 -3,7 C 49 % 1032 hPa 0,0 l/m N 0,0 km/h (0 Bft)
23.01.2006 17:00 -5,0 C 51 % 1033 hPa 0,0 l/m N 0,0 km/h (0 Bft)
23.01.2006 18:00 -5,9 C 53 % 1033 hPa 0,0 l/m N 0,0 km/h (0 Bft)
23.01.2006 19:00 -6,9 C 57 % 1033 hPa 0,0 l/m N 0,0 km/h (0 Bft)
23.01.2006 20:00 -7,8 C 58 % 1033 hPa 0,0 l/m N 0,0 km/h (0 Bft)
23.01.2006 21:00 -8,4 C 57 % 1033 hPa 0,0 l/m N 0,0 km/h (0 Bft)
23.01.2006 22:00 -9,0 C 57 % 1033 hPa 0,0 l/m N 0,0 km/h (0 Bft)
23.01.2006 23:00 -9,5 C 59 % 1033 hPa 0,0 l/m N 0,0 km/h (0 Bft)
24.01.2006 00:00 -9,9 C 60 % 1033 hPa 0,0 l/m N 0,0 km/h (0 Bft)
24.01.2006 01:00 -10,3 C 61 % 1033 hPa 0,0 l/m N 0,0 km/h (0 Bft)
24.01.2006 02:00 -10,8 C 61 % 1032 hPa 0,0 l/m N 0,0 km/h (0 Bft)
24.01.2006 03:00 -11,4 C 61 % 1032 hPa 0,0 l/m N 0,0 km/h (0 Bft)
24.01.2006 04:00 -11,6 C 61 % 1032 hPa 0,0 l/m N 0,0 km/h (0 Bft)
24.01.2006 05:00 -11,8 C 61 % 1032 hPa 0,0 l/m N 0,0 km/h (0 Bft)
24.01.2006 06:00 -12,1 C 61 % 1032 hPa 0,0 l/m N 0,0 km/h (0 Bft)
24.01.2006 07:00 -12,2 C 61 % 1032 hPa 0,0 l/m N 0,0 km/h (0 Bft)
24.01.2006 08:00 -12,2 C 61 % 1032 hPa 0,0 l/m N 0,0 km/h (0 Bft)
24.01.2006 09:00 -11,9 C 61 % 1032 hPa 0,0 l/m N 0,0 km/h (0 Bft)
24.01.2006 10:00 -11,0 C 61 % 1032 hPa 0,0 l/m N 0,0 km/h (0 Bft)
24.01.2006 11:00 -9,8 C 62 % 1031 hPa 0,0 l/m N 0,0 km/h (0 Bft)
24.01.2006 12:00 -7,9 C 58 % 1031 hPa 0,0 l/m N 0,0 km/h (0 Bft)
24.01.2006 13:00 -5,6 C 52 % 1030 hPa 0,0 l/m N 0,0 km/h (0 Bft)
24.01.2006 14:00 -4,4 C 49 % 1030 hPa 0,0 l/m N 0,0 km/h (0 Bft)
24.01.2006 15:00 -4,6 C 50 % 1029 hPa 0,0 l/m N 0,0 km/h (0 Bft)
24.01.2006 16:00 -5,4 C 54 % 1029 hPa 0,0 l/m N 0,0 km/h (0 Bft)
24.01.2006 17:00 -6,6 C 57 % 1029 hPa 0,0 l/m N 0,0 km/h (0 Bft)
24.01.2006 18:00 -8,6 C 61 % 1029 hPa 0,0 l/m N 0,0 km/h (0 Bft)
24.01.2006 19:00 -9,7 C 65 % 1028 hPa 0,0 l/m N 0,0 km/h (0 Bft)
24.01.2006 20:00 -10,3 C 66 % 1028 hPa 0,0 l/m N 0,0 km/h (0 Bft)
24.01.2006 21:00 -10,8 C 66 % 1027 hPa 0,0 l/m N 0,0 km/h (0 Bft)
24.01.2006 22:00 -11,4 C 66 % 1027 hPa 0,0 l/m N 0,0 km/h (0 Bft)
24.01.2006 23:00 -12,0 C 66 % 1026 hPa 0,0 l/m N 0,0 km/h (0 Bft)
25.01.2006 00:00 -12,3 C 66 % 1026 hPa 0,0 l/m N 0,0 km/h (0 Bft)
25.01.2006 01:00 -12,7 C 66 % 1025 hPa 0,0 l/m N 0,0 km/h (0 Bft)
25.01.2006 02:00 -13,1 C 66 % 1025 hPa 0,0 l/m N 0,0 km/h (0 Bft)
25.01.2006 03:00 -12,8 C 66 % 1024 hPa 0,0 l/m N 0,0 km/h (0 Bft)
25.01.2006 04:00 -9,7 C 80 % 1024 hPa 0,0 l/m N 0,0 km/h (0 Bft)
25.01.2006 05:00 -8,2 C 94 % 1023 hPa 0,0 l/m N 0,0 km/h (0 Bft)
25.01.2006 06:00 -8,0 C 93 % 1022 hPa 0,0 l/m N 0,0 km/h (0 Bft)
25.01.2006 07:00 -7,8 C 94 % 1022 hPa 0,0 l/m N 0,0 km/h (0 Bft)
25.01.2006 08:00 -7,7 C 94 % 1022 hPa 0,0 l/m N 0,0 km/h (0 Bft)
25.01.2006 09:00 -7,0 C 94 % 1021 hPa 0,0 l/m N 0,0 km/h (0 Bft)
25.01.2006 10:00 -6,3 C 95 % 1021 hPa 0,0 l/m N 0,0 km/h (0 Bft)
25.01.2006 11:00 -5,4 C 96 % 1020 hPa 0,0 l/m N 0,0 km/h (0 Bft)
25.01.2006 12:00 -4,6 C 95 % 1019 hPa 0,0 l/m N 0,0 km/h (0 Bft)
25.01.2006 13:00 -4,0 C 93 % 1018 hPa 0,0 l/m N 0,0 km/h (0 Bft)
25.01.2006 14:00 -2,5 C 80 % 1017 hPa 0,0 l/m N 0,0 km/h (0 Bft)
25.01.2006 15:00 -2,1 C 72 % 1016 hPa 0,0 l/m N 0,0 km/h (0 Bft)
25.01.2006 16:00 -2,7 C 77 % 1015 hPa 0,0 l/m N 0,0 km/h (0 Bft)
25.01.2006 17:00 -2,7 C 80 % 1015 hPa 0,0 l/m N 0,0 km/h (0 Bft)
25.01.2006 18:00 -2,5 C 77 % 1015 hPa 0,0 l/m N 0,0 km/h (0 Bft)
25.01.2006 19:00 -3,5 C 81 % 1014 hPa 0,0 l/m N 0,0 km/h (0 Bft)
25.01.2006 20:00 -3,5 C 85 % 1014 hPa 0,0 l/m N 0,0 km/h (0 Bft)
25.01.2006 21:00 -3,2 C 86 % 1014 hPa 0,0 l/m N 0,0 km/h (0 Bft)
25.01.2006 22:00 -3,4 C 86 % 1014 hPa 0,0 l/m N 0,0 km/h (0 Bft)
25.01.2006 23:00 -4,0 C 86 % 1013 hPa 0,0 l/m N 0,0 km/h (0 Bft)
26.01.2006 00:00 -3,4 C 89 % 1013 hPa 0,0 l/m N 0,0 km/h (0 Bft)
26.01.2006 01:00 -4,0 C 88 % 1013 hPa 0,0 l/m N 0,0 km/h (0 Bft)
26.01.2006 02:00 -5,3 C 88 % 1012 hPa 0,0 l/m N 0,0 km/h (0 Bft)
26.01.2006 03:00 -5,9 C 90 % 1012 hPa 0,0 l/m N 0,0 km/h (0 Bft)
26.01.2006 04:00 -6,0 C 91 % 1012 hPa 0,0 l/m N 0,0 km/h (0 Bft)
26.01.2006 05:00 -6,7 C 91 % 1011 hPa 0,0 l/m N 0,0 km/h (0 Bft)
26.01.2006 06:00 -7,1 C 91 % 1011 hPa 0,0 l/m N 0,0 km/h (0 Bft)
26.01.2006 07:00 -6,6 C 91 % 1011 hPa 0,0 l/m N 0,0 km/h (0 Bft)
26.01.2006 08:00 -6,0 C 93 % 1012 hPa 0,0 l/m N 0,0 km/h (0 Bft)
26.01.2006 09:00 -5,4 C 93 % 1012 hPa 0,0 l/m N 0,0 km/h (0 Bft)
26.01.2006 10:00 -4,6 C 94 % 1012 hPa 0,0 l/m N 0,0 km/h (0 Bft)
26.01.2006 11:00 -3,3 C 93 % 1012 hPa 0,0 l/m N 0,0 km/h (0 Bft)
26.01.2006 12:00 -1,4 C 85 % 1012 hPa 0,0 l/m N 0,0 km/h (0 Bft)
26.01.2006 13:00 0,7 C 66 % 1012 hPa 0,0 l/m NO 1,3 km/h (1 Bft)
26.01.2006 14:00 0,4 C 64 % 1012 hPa 0,0 l/m NO 12,2 km/h (2 Bft)
26.01.2006 15:00 0,2 C 62 % 1012 hPa 0,0 l/m NO 12,8 km/h (3 Bft)
26.01.2006 16:00 -0,1 C 67 % 1012 hPa 0,0 l/m NO 12,7 km/h (3 Bft)
26.01.2006 17:00 -0,9 C 76 % 1012 hPa 0,0 l/m N 13,7 km/h (3 Bft)
26.01.2006 18:00 -2,1 C 77 % 1013 hPa 0,0 l/m N 13,8 km/h (3 Bft)
26.01.2006 19:00 -3,3 C 79 % 1014 hPa 0,0 l/m N 11,5 km/h (2 Bft)
26.01.2006 20:00 -3,9 C 77 % 1014 hPa 0,0 l/m N-NO 11,6 km/h (2 Bft)
26.01.2006 21:00 -4,5 C 60 % 1015 hPa 0,0 l/m NO 10,8 km/h (2 Bft)
26.01.2006 22:00 -5,4 C 55 % 1015 hPa 0,0 l/m NO 12,7 km/h (3 Bft)
26.01.2006 23:00 -6,3 C 56 % 1016 hPa 0,0 l/m NO 11,7 km/h (2 Bft)
27.01.2006 00:00 -6,8 C 62 % 1016 hPa 0,0 l/m N-NO 13,0 km/h (3 Bft)
27.01.2006 01:00 -7,1 C 66 % 1015 hPa 0,0 l/m NO 10,7 km/h (2 Bft)
27.01.2006 02:00 -7,4 C 71 % 1015 hPa 0,0 l/m NO 9,5 km/h (2 Bft)
27.01.2006 03:00 -7,4 C 77 % 1016 hPa 0,0 l/m N-NO 8,4 km/h (2 Bft)
27.01.2006 04:00 -7,9 C 79 % 1016 hPa 0,0 l/m N 7,2 km/h (2 Bft)
27.01.2006 05:00 -8,3 C 81 % 1016 hPa 0,0 l/m N 9,8 km/h (2 Bft)
27.01.2006 06:00 -8,4 C 82 % 1016 hPa 0,0 l/m N 10,1 km/h (2 Bft)
27.01.2006 07:00 -8,5 C 82 % 1016 hPa 0,0 l/m N 9,8 km/h (2 Bft)
27.01.2006 08:00 -8,5 C 81 % 1016 hPa 0,0 l/m N 10,1 km/h (2 Bft)
27.01.2006 09:00 -8,2 C 79 % 1017 hPa 0,0 l/m N 11,9 km/h (2 Bft)
27.01.2006 10:00 -7,3 C 75 % 1017 hPa 0,0 l/m N-NO 11,8 km/h (2 Bft)
27.01.2006 11:00 -6,5 C 70 % 1017 hPa 0,0 l/m N-NO 10,7 km/h (2 Bft)
27.01.2006 12:00 -5,8 C 67 % 1017 hPa 0,0 l/m N-NO 8,2 km/h (2 Bft)
27.01.2006 13:00 -4,7 C 62 % 1017 hPa 0,0 l/m NO 11,5 km/h (2 Bft)
27.01.2006 14:00 -4,8 C 63 % 1016 hPa 0,0 l/m NO 12,1 km/h (2 Bft)
27.01.2006 15:00 -4,9 C 65 % 1016 hPa 0,0 l/m NO 11,7 km/h (2 Bft)
27.01.2006 16:00 -4,9 C 65 % 1016 hPa 0,0 l/m NO 11,8 km/h (2 Bft)
27.01.2006 17:00 -5,0 C 66 % 1016 hPa 0,0 l/m NO 7,9 km/h (2 Bft)
27.01.2006 18:00 -5,1 C 68 % 1017 hPa 0,0 l/m N 6,7 km/h (2 Bft)
27.01.2006 19:00 -5,3 C 70 % 1017 hPa 0,0 l/m N 6,4 km/h (2 Bft)
27.01.2006 20:00 -5,3 C 72 % 1017 hPa 0,0 l/m N-NW 8,1 km/h (2 Bft)
27.01.2006 21:00 -5,6 C 73 % 1017 hPa 0,0 l/m N 8,9 km/h (2 Bft)
27.01.2006 22:00 -5,8 C 75 % 1018 hPa 0,0 l/m N 7,3 km/h (2 Bft)
27.01.2006 23:00 -5,9 C 75 % 1018 hPa 0,0 l/m N 8,3 km/h (2 Bft)
28.01.2006 00:00 -6,0 C 76 % 1018 hPa 0,0 l/m N 6,1 km/h (2 Bft)
28.01.2006 01:00 -6,2 C 78 % 1018 hPa 0,0 l/m N-NW 9,2 km/h (2 Bft)
28.01.2006 02:00 -6,8 C 79 % 1018 hPa 0,0 l/m N-NW 6,6 km/h (2 Bft)
28.01.2006 03:00 -7,3 C 82 % 1018 hPa 0,0 l/m N-NW 9,8 km/h (2 Bft)
28.01.2006 04:00 -7,6 C 83 % 1018 hPa 0,0 l/m N-NW 10,7 km/h (2 Bft)
28.01.2006 05:00 -7,8 C 85 % 1019 hPa 0,0 l/m N 10,8 km/h (2 Bft)
28.01.2006 06:00 -8,1 C 85 % 1019 hPa 0,0 l/m N 10,3 km/h (2 Bft)
28.01.2006 07:00 -8,5 C 86 % 1019 hPa 0,0 l/m N 10,5 km/h (2 Bft)
28.01.2006 08:00 -8,5 C 87 % 1019 hPa 0,0 l/m N 9,9 km/h (2 Bft)
28.01.2006 09:00 -7,6 C 86 % 1019 hPa 0,0 l/m N 10,8 km/h (2 Bft)
28.01.2006 10:00 -5,8 C 78 % 1020 hPa 0,0 l/m N 12,5 km/h (3 Bft)
28.01.2006 11:00 -4,1 C 69 % 1020 hPa 0,0 l/m N 12,3 km/h (3 Bft)
28.01.2006 12:00 -2,6 C 62 % 1019 hPa 0,0 l/m N-NO 10,8 km/h (2 Bft)
28.01.2006 13:00 -1,3 C 57 % 1019 hPa 0,0 l/m N-NO 11,8 km/h (2 Bft)
28.01.2006 14:00 0,4 C 53 % 1019 hPa 0,0 l/m N-NO 14,9 km/h (3 Bft)
28.01.2006 15:00 0,6 C 53 % 1019 hPa 0,0 l/m N-NO 15,0 km/h (3 Bft)
28.01.2006 16:00 -0,3 C 56 % 1018 hPa 0,0 l/m N 13,4 km/h (3 Bft)
28.01.2006 17:00 -1,2 C 60 % 1019 hPa 0,0 l/m N 11,3 km/h (2 Bft)
28.01.2006 18:00 -2,0 C 64 % 1019 hPa 0,0 l/m N 11,1 km/h (2 Bft)
28.01.2006 19:00 -2,7 C 67 % 1019 hPa 0,0 l/m N-NW 10,7 km/h (2 Bft)
28.01.2006 20:00 -3,2 C 71 % 1020 hPa 0,0 l/m N 11,8 km/h (2 Bft)
28.01.2006 21:00 -3,8 C 74 % 1020 hPa 0,0 l/m N 12,2 km/h (3 Bft)
28.01.2006 22:00 -4,3 C 75 % 1020 hPa 0,0 l/m N 12,6 km/h (3 Bft)
28.01.2006 23:00 -4,5 C 76 % 1020 hPa 0,0 l/m N 12,9 km/h (3 Bft)
29.01.2006 00:00 -4,8 C 76 % 1021 hPa 0,0 l/m N 12,9 km/h (3 Bft)
29.01.2006 01:00 -5,1 C 76 % 1021 hPa 0,0 l/m N 13,0 km/h (3 Bft)
29.01.2006 02:00 -5,5 C 76 % 1021 hPa 0,0 l/m N 13,4 km/h (3 Bft)
29.01.2006 03:00 -5,9 C 77 % 1021 hPa 0,0 l/m N 12,2 km/h (2 Bft)
29.01.2006 04:00 -6,3 C 78 % 1022 hPa 0,0 l/m N 11,4 km/h (2 Bft)
29.01.2006 05:00 -6,6 C 80 % 1022 hPa 0,0 l/m N 11,8 km/h (2 Bft)
29.01.2006 06:00 -6,9 C 80 % 1022 hPa 0,0 l/m N 10,8 km/h (2 Bft)
29.01.2006 07:00 -7,2 C 81 % 1023 hPa 0,0 l/m N 10,8 km/h (2 Bft)
29.01.2006 08:00 -7,3 C 82 % 1023 hPa 0,0 l/m N 12,2 km/h (2 Bft)
29.01.2006 09:00 -6,5 C 79 % 1023 hPa 0,0 l/m N 12,4 km/h (3 Bft)
29.01.2006 10:00 -5,1 C 71 % 1023 hPa 0,0 l/m N-NO 13,3 km/h (3 Bft)
29.01.2006 11:00 -3,3 C 64 % 1023 hPa 0,0 l/m N 14,1 km/h (3 Bft)
29.01.2006 12:00 -1,1 C 58 % 1022 hPa 0,0 l/m N 15,0 km/h (3 Bft)
29.01.2006 13:00 1,4 C 52 % 1022 hPa 0,0 l/m N-NO 15,9 km/h (3 Bft)
29.01.2006 14:00 2,2 C 51 % 1022 hPa 0,0 l/m N 13,1 km/h (3 Bft)
29.01.2006 15:00 1,3 C 54 % 1022 hPa 0,0 l/m N 12,0 km/h (2 Bft)
29.01.2006 16:00 0,2 C 59 % 1022 hPa 0,0 l/m N 11,3 km/h (2 Bft)
29.01.2006 17:00 -0,8 C 64 % 1022 hPa 0,0 l/m N 11,8 km/h (2 Bft)
29.01.2006 18:00 -1,2 C 68 % 1022 hPa 0,0 l/m N 11,2 km/h (2 Bft)
29.01.2006 19:00 -2,1 C 69 % 1023 hPa 0,0 l/m N 11,5 km/h (2 Bft)
29.01.2006 20:00 -2,9 C 67 % 1023 hPa 0,0 l/m N 11,8 km/h (2 Bft)
29.01.2006 21:00 -3,7 C 67 % 1024 hPa 0,0 l/m N 12,1 km/h (2 Bft)
29.01.2006 22:00 -4,3 C 67 % 1024 hPa 0,0 l/m N 10,8 km/h (2 Bft)
29.01.2006 23:00 -4,7 C 68 % 1024 hPa 0,0 l/m N 10,9 km/h (2 Bft)
Min-Datum _ 25.01.06 23.01.06 26.01.06 - - 23.01.06
_ Min-Zeit 02:52 15:29 04:47 - - 00:00
Minimum _ -13,3 C 46 % 1011 hPa - - 0,0 km/h (0 Bft)
Max-Datum _ 29.01.06 25.01.06 23.01.06 23.01.06 - 26.01.06
_ Max-Zeit 14:49 10:44 06:02 00:00 - 15:00
Maximum _ 2,4 C 96 % 1033 hPa 0,0 l/m - 24,7 km/h
NO (4 Bft)
Durchschnitt _ -5,8 C 72 % 1022 hPa #0,0 l/m N 5,5 km/h (1 Bft)

Durchschnitt Minimum Temp.-6,1 C
Durchschnitt Maximum Temp.-5,4 C